Location: Huntsville
(41.2590°N, 111.7678°W)
Time: 16:30:26
(UTC+00:00)

Courier 1B Rocket - Pass Details

Date: 14 June 2021
Orbit: 920 x 1202 km, 28.2° (Epoch: 22 July)

Event Time Altitude Azimuth Distance (km) Brightness Sun altitude
Rises 09:35:41 0° 252° (WSW) 3,561 - -18.9°
Reaches altitude 10° 09:40:17 10° 222° (SW) 2,649 - -18.5°
Maximum altitude 09:42:24 12° 202° (SSW) 2,543 - -18.3°
Drops below altitude 10° 09:44:33 10° 182° (S) 2,692 - -18.1°
Exits shadow 09:48:51 - 155° (SSE) 3,572 7.7 -17.6°
Sets 09:49:21 0° 152° (SSE) 3,704 7.8 -17.6°
